Regional Weather Roundup
Issued by NWS Newport/Morehead, NC

Current Version | Previous Version | Graphics & Text | Print | Product List | Glossary Off
Versions: 1 2 3 4 5 6 7 8 9 10 11 12 13 14 15 16 17 18 19 20 21 22 23 24 25 26 27 28 29 30 31 32 33 34 35 36 37 38 39 40 41 42 43 44 45 46 47 48 49 50

000
ASUS42 KMHX 220810
RWRMHX
WEATHER ROUNDUP FOR EASTERN NORTH CAROLINA
NATIONAL WEATHER SERVICE NEWPORT/MOREHEAD CITY NC
400 AM EDT TUE JUL 22 2014

NOTE: "FAIR" INDICATES FEW OR NO CLOUDS BELOW 12,000 FEET
WITH NO SIGNIFICANT WEATHER AND/OR OBSTRUCTIONS TO VISIBILITY

NCZ015>017-031-032-045>047-102-103-220900-
NORTH COAST

CITY           SKY/WX    TMP DP  RH WIND       PRES   REMARKS
EDENTON        CLOUDY    73  71  96 NE3       30.12F
ELIZABETH CITY CLOUDY    74  71  91 E5        30.13F
KITTY HAWK     CLOUDY    75  73  93 E5        30.11F
MANTEO         NOT AVBL

$$

NCZ045>047-081-094-103-104-220900-
CENTRAL COAST

CITY           SKY/WX    TMP DP  RH WIND       PRES   REMARKS
FRISCO         MOCLDY    75  74  96 NE5       30.11S
SWANQUARTER      N/A     75 N/A N/A NE2       30.06S

$$

NCZ095-097-098-100-101-220900-
SOUTHERN COAST

CITY           SKY/WX    TMP DP  RH WIND       PRES   REMARKS
BEAUFORT       MOCLDY    75  73  93 NE5       30.10S
CEDAR ISLAND     N/A     75 N/A N/A S6        30.12F
JACKSONVILLE   CLOUDY    74  73  97 CALM      30.09S FOG
NEWPORT        NOT AVBL
PINEY ISLAND   CLOUDY    78  77  96 SE3       30.09S
WILMINGTON     CLOUDY    74  73  97 NE3       30.08F


$$

NCZ011>013-027>030-043-044-078>080-089-090>093-098-220900-
COASTAL PLAIN

CITY           SKY/WX    TMP DP  RH WIND       PRES   REMARKS
AHOSKIE        MOCLDY    70  68  94 N3        30.13F
CLINTON        CLOUDY    73  73 100 CALM      30.11S FOG
ELIZABETHTOWN  FOG       73  73 100 E3        30.09S VSB 1/2
GOLDSBORO      CLOUDY    73  72  99 NE5       30.10S
GREENVILLE     MOCLDY    72  72 100 E3        30.13S
HAVELOCK       MOCLDY    75  72  90 CALM      30.10F
KENANSVILLE    CLOUDY    73  72  95 CALM      30.11S FOG
KINSTON        CLOUDY    73  71  95 NE5       30.12S
NEW BERN       CLOUDY    75  72  90 N3        30.11S
RICHLANDS      CLOUDY    73  72  94 N3        30.10S VSB 1
ROANOKE RAPIDS NOT AVBL
ROCKY MOUNT    CLOUDY    72  70  93 CALM      30.13S
WASHINGTON     MOCLDY    71  69  96 CALM      30.12S
WHITEVILLE     FOG       73  72  97 CALM      30.08S VSB 1/2

$$

AMZ130-135-150-152-154-156-158-170-250-252-270-ANZ085-086-088-633-658-670-220900-
MARINE OBSERVATIONS

STATION/POSITION TIME  TEMP    WIND        PRES    WAVE   SWELL
                       AIR SEA DIR/SP/G            HT/PER HT/PER
                 (UTC) (F)     (DEG/KT/KT) (MB)    (FT/S) (FT/S)
CHESAPEAKE LIGHT NOT AVBL
BUOY 44014       0800   76 77   60/  6/  8 1020.2    3/ 8   3/ 8
DUCK             0800   75 74   60/  8/  9 1019.5
2E DUCK          0800                        N/A     2/ 8
OREGON INLET     0800   76 77   60/  5/  8 1019.7
BUOY 44095       0800      78                N/A     3/ 7
20E OREGON INLET NOT AVBL
HATTERAS CG      0800   76 81   20/  3/  5 1019.8
DIAMOND BUOY     0800          VRB  8/ 10  1019.4    3/ 8   3/ 8
CAPE LOOKOUT     0700   79     220/  5/  7 1019.0
BEAUFORT LAB     0800   75 80  360/  2/  2 1018.5
30 SE NEW RIVER  0800   79 81  210/  8/  8 1019.1    4/ 7   3/ 7
5 SE WRIGHTSVILL 0700   76 81  170/  8/ 10   N/A
BUOY 41002       0742   81 82  180/ 14/ 16 1020.0    4/ 7   2/ 7
BUOY 41004       0800   82 82  170/ 10/ 10 1016.3    2/ 7   2/ 7

$$


USA.gov is the U.S. government's official web portal to all federal, state and local government web resources and services.